Wetbulb
45.69 45.53 45.34 44.99 44.62 44.60 44.60 44.22 43.68 43.79 44.21 44.38 44.03 43.91 43.82 43.54 43.23 43.05 43.18 43.26 42.99 42.75 42.72 42.68 42.44 42.31 42.15 41.95 41.54 41.18 40.82 40.61 40.25 39.69 39.33 39.50 39.70 39.74 39.70 39.78 39.74 39.70 39.74 39.79 39.87 39.83 39.63 39.47 38.97 38.47 38.05 37.85 37.69 37.66 37.66 37.67 37.66 37.28 36.90 36.67 36.48 36.42 36.29 35.96 35.83 35.72 35.69 35.69 35.78
45.00 44.81 44.38 43.31 43.39 43.90 44.20 43.82 43.68 43.68 44.04 44.30 44.15 43.97 43.71 43.42 42.92 42.77 42.62 42.58 42.59 42.59 42.47 42.31 42.15 41.91 41.70 41.30 41.06 40.73 40.37 40.25 40.01 39.73 39.49 39.45 39.53 39.54 39.58 39.46 39.42 39.34 39.23 39.35 39.28 39.24 39.12 39.09 38.55 38.09 37.75 37.74 37.58 37.36 37.21 37.40 37.40 36.98 36.49 36.24 36.35 36.27 36.11 35.73 35.73 35.73 35.72 35.59 35.69
44.75 44.74 44.69 44.56 44.51 44.29 44.07 43.77 43.91 43.96 44.08 44.08 44.08 43.91 43.61 43.21 42.77 42.29 42.14 42.11 42.18 42.14 42.02 41.74 41.62 41.42 41.26 40.89 40.66 40.46 40.22 40.05 39.97 39.73 39.61 39.53 39.48 39.52 39.44 39.41 39.29 39.05 38.89 39.10 39.10 38.99 38.96 38.89 38.31 37.74 37.31 37.32 37.24 37.05 36.98 37.05 37.04 36.77 36.28 36.11 36.23 36.23 35.89 35.39 35.64 35.73 35.76 35.51 35.46
44.44 44.51 44.37 44.25 44.25 44.05 43.86 43.61 43.67 43.76 43.80 43.76 43.71 43.46 43.14 42.94 42.42 42.05 41.74 41.66 41.49 41.33 41.18 41.14 41.10 41.02 40.85 40.57 40.25 40.09 39.93 39.40 39.56 39.56 39.44 39.44 39.46 39.41 39.29 39.41 39.18 39.18 39.10 39.14 38.98 38.87 38.77 38.63 38.26 37.81 37.46 37.31 37.04 36.96 36.85 36.96 36.97 36.70 36.33 36.22 36.30 36.06 35.71 35.44 35.66 35.76 35.57 35.41 35.54
44.07 44.09 44.05 43.98 43.87 43.79 43.87 43.79 43.64 43.56 43.52 43.43 43.10 42.82 42.45 42.17 41.81 41.49 41.21 40.77 40.54 40.54 40.69 40.89 40.74 40.65 40.49 40.32 39.96 39.80 39.75 39.49 38.74 39.09 39.44 39.35 39.25 39.36 39.27 39.23 39.16 39.09 39.09 38.96 38.83 38.67 38.52 38.38 38.24 37.98 37.68 37.49 37.15 36.95 37.01 37.17 36.96 36.59 36.39 36.27 36.14 35.90 35.68 35.50 35.53 35.57 35.51 35.30 35.41
43.42 43.59 43.72 43.77 43.74 43.65 43.57 43.57 43.41 43.20 42.95 42.78 42.29 41.72 41.41 41.17 40.93 40.61 40.26 39.98 40.10 40.29 40.36 39.94 39.80 39.64 39.64 39.88 39.72 39.60 39.47 39.55 39.30 39.22 39.19 39.03 39.15 39.16 39.10 38.94 38.89 38.94 38.99 38.87 38.80 38.70 38.59 38.39 38.05 37.84 37.76 37.57 37.29 37.32 37.36 37.30 36.83 36.42 36.10 35.94 35.94 35.92 35.65 35.43 35.27 35.27 35.21 34.94 34.85
43.16 43.14 43.11 43.12 43.16 43.12 43.00 43.05 42.84 42.63 42.34 41.97 41.29 40.81 40.46 40.42 40.18 39.94 39.82 39.94 39.98 39.93 39.64 39.23 39.24 39.21 39.18 39.22 39.06 39.02 39.02 38.94 39.02 39.04 38.91 38.88 38.79 38.74 38.60 38.60 38.61 38.57 38.57 38.60 38.56 38.60 38.61 38.47 37.99 37.52 37.30 37.03 37.20 37.52 37.65 37.45 36.80 36.32 35.88 35.56 35.64 35.64 35.57 35.54 35.30 35.08 34.65 34.33 34.10
43.01 42.86 42.70 42.58 42.58 42.50 42.34 42.27 42.10 41.81 41.32 40.93 40.42 40.10 39.90 39.94 39.78 39.74 39.74 39.74 39.62 39.46 39.26 39.18 39.37 39.29 39.10 38.91 38.71 38.60 38.60 38.56 38.60 38.67 38.81 38.68 38.47 38.30 38.25 38.16 38.11 38.06 38.05 38.11 38.15 38.04 38.17 38.24 37.87 37.74 37.59 37.52 37.26 37.37 37.62 37.45 36.83 36.24 35.82 35.60 35.46 35.61 35.69 35.98 35.73 35.02 34.13 33.72 33.59
42.70 42.55 42.43 42.39 42.26 42.06 41.74 41.57 41.37 40.97 40.53 40.18 39.90 39.90 39.89 39.81 39.68 39.57 39.54 39.35 39.18 39.26 39.31 39.27 39.21 39.11 38.98 38.80 38.61 38.62 38.55 38.44 38.36 38.31 38.33 38.23 37.86 37.74 37.67 37.67 37.54 37.49 37.60 37.70 37.55 37.45 37.42 37.50 37.52 37.59 37.68 37.44 37.34 37.38 37.58 37.68 37.21 36.79 36.33 35.74 35.46 35.30 35.29 35.40 35.00 34.35 33.70 33.37 33.10
42.26 42.14 42.10 41.90 41.87 41.58 41.30 41.10 40.85 40.46 40.10 39.83 39.70 39.69 39.44 38.81 39.31 39.53 39.51 39.35 39.14 39.34 39.42 39.31 39.20 38.90 38.82 38.70 38.59 38.44 38.28 38.21 37.86 37.59 37.38 37.17 36.88 36.72 36.76 36.91 36.77 36.81 36.96 37.14 37.07 36.92 36.81 36.86 36.91 37.08 37.20 37.44 37.38 37.46 37.62 37.93 37.70 37.36 36.79 35.94 35.59 35.20 34.82 34.71 34.32 33.76 33.30 32.96 32.52
41.82 41.82 41.70 41.62 41.42 41.02 40.74 40.62 40.18 39.90 39.75 39.59 39.51 39.50 39.44 38.91 39.32 39.53 39.50 39.37 39.34 39.29 39.17 39.19 38.96 38.72 38.55 38.51 38.30 37.96 37.79 37.60 37.27 36.85 36.63 36.40 36.15 36.06 36.10 36.15 36.07 36.08 36.28 36.53 36.57 36.57 36.39 36.25 36.20 36.20 36.40 36.87 37.10 37.23 37.52 37.77 37.56 37.38 37.05 36.61 36.00 35.12 34.26 33.58 33.61 33.30 32.91 32.57 31.97
41.54 41.46 41.42 41.30 41.06 40.74 40.42 40.14 39.82 39.55 39.32 39.20 39.05 39.20 39.35 39.58 39.65 39.52 39.27 39.22 39.16 38.93 38.87 38.70 38.44 38.26 38.10 38.09 37.81 37.39 36.98 36.62 36.16 35.97 35.90 35.77 35.75 35.67 35.67 35.83 35.70 35.74 35.77 35.97 36.06 35.95 35.83 35.60 35.48 35.33 35.47 35.90 36.39 36.62 36.96 37.16 37.01 36.78 36.50 36.40 35.69 34.70 33.61 32.72 32.61 32.70 32.59 32.28 31.68
41.22 41.18 41.10 41.01 40.73 40.45 40.22 39.90 39.63 39.40 39.16 39.01 38.89 39.01 39.24 39.39 39.24 39.05 38.97 38.90 38.69 38.50 38.29 37.92 37.48 37.33 37.25 37.16 36.90 36.66 36.30 35.87 35.45 35.38 35.39 35.48 35.52 35.55 35.55 35.67 35.58 35.52 35.62 35.78 35.78 35.50 35.27 35.17 35.08 34.84 34.80 34.91 35.48 35.88 36.11 36.16 35.84 35.46 35.10 35.06 34.63 33.93 33.07 32.30 32.06 32.13 32.10 31.80 31.46
40.81 40.85 40.85 40.61 40.36 40.25 40.02 39.75 39.43 39.24 39.05 38.89 38.97 39.08 39.19 39.34 38.93 38.51 38.48 38.44 38.05 37.83 37.51 37.05 36.68 36.39 36.15 35.77 35.78 35.55 35.21 35.07 34.90 34.90 35.09 35.27 35.37 35.36 35.33 35.42 35.27 35.14 35.23 35.34 35.40 35.18 34.89 34.76 34.71 34.57 34.46 34.32 34.74 35.05 35.31 35.31 34.75 34.20 33.83 34.01 33.85 33.19 32.46 31.97 31.79 31.69 31.49 31.19 30.98
40.37 40.41 40.36 40.20 40.04 39.89 39.70 39.47 39.32 39.12 39.05 38.89 38.96 38.99 39.02 39.06 38.45 37.97 37.71 37.60 37.24 37.05 36.87 36.52 36.18 35.59 34.85 34.41 34.50 34.38 34.42 34.47 34.55 34.79 34.93 34.98 35.06 35.08 34.92 34.82 34.64 34.54 34.58 34.71 34.90 35.00 34.95 34.71 34.63 34.43 34.27 34.11 34.18 34.45 34.56 34.33 33.73 33.23 33.17 33.28 33.02 32.37 31.84 31.42 31.12 30.87 30.61 30.36 30.27
40.09 39.97 39.88 39.68 39.56 39.58 39.43 39.32 39.20 39.04 38.93 38.89 38.81 38.71 38.58 38.47 37.84 37.31 36.85 36.76 36.79 36.69 36.47 35.99 35.58 35.22 34.73 33.93 33.71 33.80 34.13 34.51 34.59 34.69 34.75 34.68 34.49 34.34 34.32 34.11 34.04 33.99 34.05 34.14 34.47 34.73 34.95 34.81 34.63 34.43 34.19 33.86 33.67 33.54 33.45 33.07 32.62 32.50 32.50 32.54 32.10 31.59 30.96 30.53 30.21 30.11 29.86 29.66 29.40
39.74 39.53 39.36 39.24 39.13 39.03 39.08 39.04 38.93 38.85 38.77 38.70 38.44 38.16 37.95 37.72 37.30 36.82 36.28 35.96 36.25 36.29 35.96 35.40 35.12 34.86 34.64 34.34 33.94 34.07 34.34 34.70 34.72 34.55 34.31 33.88 33.65 33.61 33.64 33.63 33.55 33.59 33.83 33.98 34.16 34.41 34.55 34.58 34.57 34.36 34.18 33.84 33.35 32.88 32.44 32.11 32.06 32.09 32.12 31.88 31.18 30.58 30.17 29.77 29.67 29.63 29.51 29.39 29.10
39.38 39.14 38.97 38.73 38.70 38.68 38.69 38.65 38.58 38.46 38.38 38.26 38.01 37.64 37.35 36.90 36.65 36.30 35.82 35.14 35.32 35.42 35.39 35.04 34.64 34.56 34.50 34.48 34.46 34.47 34.57 34.54 34.33 33.95 33.65 33.23 33.06 33.14 33.22 33.33 33.36 33.52 33.77 33.83 33.90 33.98 33.95 34.00 33.93 34.02 33.95 33.65 33.13 32.66 32.27 32.05 32.20 32.20 31.91 31.17 30.51 30.04 29.86 29.84 29.75 29.64 29.42 29.11 28.91
39.04 38.84 38.63 38.39 38.37 38.34 38.26 38.10 38.11 38.18 37.99 37.82 37.40 36.99 36.50 36.00 35.88 35.62 35.35 34.94 34.40 34.35 34.52 34.80 34.54 34.40 34.26 34.02 34.14 33.97 33.92 34.11 33.67 33.33 33.11 32.82 32.84 32.82 32.87 32.93 33.17 33.30 33.39 33.52 33.55 33.55 33.47 33.39 33.51 33.53 33.60 33.30 33.03 32.66 32.42 32.33 32.35 32.04 31.52 30.57 30.19 30.03 30.13 30.38 30.44 30.10 29.73 29.20 28.77
38.93 38.69 38.53 38.34 38.27 38.15 38.03 37.78 37.78 37.59 37.34 37.12 36.67 36.34 36.05 35.63 35.11 34.83 34.72 34.58 33.85 33.58 33.78 34.31 34.56 34.41 34.17 33.80 33.67 33.51 33.52 33.52 33.30 32.96 32.74 32.63 32.46 32.29 32.21 32.21 32.42 32.61 32.81 32.95 33.07 33.09 33.12 33.04 33.33 33.40 33.41 33.07 32.77 32.56 32.37 32.27 31.92 31.39 30.64 29.91 29.97 30.05 30.26 30.58 30.28 29.81 29.29 28.98 28.48
38.93 38.77 38.54 38.31 38.07 37.92 37.76 37.58 37.04 36.59 36.39 36.39 36.27 36.11 35.90 35.35 34.62 34.20 33.97 33.78 33.32 33.20 33.47 33.96 34.10 34.04 33.88 33.72 33.51 33.33 33.17 33.06 32.86 32.59 32.40 32.19 31.82 31.65 31.48 31.53 31.70 31.96 32.32 32.52 32.78 32.95 33.00 33.04 33.23 33.35 33.23 32.99 32.55 32.20 31.84 31.39 30.86 30.36 29.98 29.83 29.78 29.88 29.96 29.88 29.10 28.47 28.10 28.04 27.87
39.09 38.74 38.38 37.95 37.63 37.35 36.98 36.43 35.92 35.76 35.85 36.11 36.23 35.91 35.54 34.87 34.24 33.70 33.23 32.85 32.73 33.08 33.59 34.02 33.87 33.61 33.35 33.35 33.19 32.96 32.81 32.66 32.41 32.09 31.80 31.57 31.33 31.13 30.98 31.19 31.20 31.43 31.71 32.17 32.54 32.85 33.03 33.25 33.35 33.27 33.02 32.42 32.07 31.52 30.94 30.08 29.91 29.76 29.70 29.69 29.55 29.43 29.28 28.87 27.84 27.37 27.26 27.15 26.96
39.16 38.58 37.94 37.38 36.93 36.30 35.71 35.34 35.34 35.52 35.89 36.24 36.17 35.75 35.01 34.38 33.60 33.01 32.42 32.27 32.77 33.05 33.27 33.47 33.25 32.73 32.41 32.30 32.38 32.41 32.41 32.35 32.00 31.57 31.27 30.98 30.84 30.60 30.60 30.96 30.85 30.98 31.34 32.09 32.67 32.94 33.12 33.30 33.35 33.03 32.39 31.56 30.98 30.41 29.93 29.47 29.19 29.11 29.07 29.03 28.89 28.69 28.49 28.13 27.10 26.56 26.45 26.40 26.07
38.49 37.98 37.62 37.37 36.63 36.04 35.55 35.31 35.48 35.90 36.21 36.30 35.77 35.06 34.22 33.56 33.15 32.75 32.47 32.48 32.63 32.55 32.48 32.48 32.22 31.84 31.47 31.35 31.53 31.79 32.06 32.06 31.58 31.14 30.87 30.63 30.41 30.30 30.22 30.48 30.55 30.81 31.51 32.85 32.91 32.88 32.85 32.93 32.95 32.35 31.45 30.62 29.94 29.50 29.21 29.05 28.82 28.61 28.30 27.97 27.72 27.53 27.53 27.53 27.16 26.62 26.25 26.04 25.98
37.52 37.32 37.08 36.96 36.51 36.18 35.97 35.81 36.07 36.33 36.43 36.14 34.94 33.94 33.23 33.17 32.97 32.96 33.07 33.02 32.61 32.15 31.79 31.49 31.42 31.42 31.45 31.48 31.42 31.48 31.57 31.47 31.08 30.72 30.37 30.18 30.00 30.02 29.99 30.11 30.24 30.90 31.85 32.50 31.79 31.66 31.65 31.82 31.87 31.36 30.68 29.76 29.17 28.84 28.68 28.61 28.27 27.97 27.62 27.15 26.83 26.72 26.62 26.72 26.83 26.78 26.52 26.25 26.10
36.92 36.98 36.99 36.80 36.67 36.48 36.36 36.40 36.55 36.44 36.07 35.17 33.89 33.17 32.90 32.83 32.52 32.75 33.15 33.33 32.53 31.85 31.26 31.30 31.52 31.67 31.88 31.92 31.87 31.62 31.33 30.94 30.56 30.19 29.93 29.73 29.49 29.49 29.53 29.61 29.97 30.97 31.86 31.59 31.07 31.07 31.20 31.40 30.74 30.23 29.94 29.56 28.62 28.24 27.94 27.89 27.72 27.42 27.07 26.69 26.47 26.20 25.91 25.76 25.88 26.02 26.15 26.14 26.02
36.88 37.02 37.16 37.12 36.89 36.69 36.66 36.56 36.28 35.86 35.17 34.20 33.27 33.03 32.77 32.23 32.25 32.62 33.19 33.31 32.28 31.59 31.18 31.37 31.59 31.71 31.82 32.16 31.92 31.66 31.14 30.87 30.20 29.67 29.28 29.15 28.93 28.87 28.92 29.18 29.44 30.40 31.26 30.97 30.70 30.65 30.82 30.90 30.42 29.95 29.49 29.20 28.42 27.75 27.45 27.19 27.05 26.75 26.40 26.21 26.00 25.78 25.36 25.07 25.02 25.07 25.22 25.41 25.52
37.01 37.20 37.28 37.04 36.76 36.59 36.42 35.91 35.45 35.01 34.50 33.64 33.03 32.62 32.31 31.57 31.77 32.36 32.95 32.95 32.30 32.04 31.86 31.67 31.44 31.55 31.93 32.38 31.91 31.29 30.70 30.19 29.89 29.52 29.10 28.94 28.53 28.26 28.31 28.55 28.90 29.33 29.80 29.99 30.15 30.19 30.30 30.30 30.24 29.73 29.01 28.20 28.07 27.67 27.21 26.78 26.38 26.07 25.86 25.68 25.54 25.30 25.10 24.86 24.82 24.72 24.66 24.76 24.90
37.19 37.28 37.28 36.99 36.77 36.54 36.04 35.35 35.22 34.84 34.20 32.91 32.32 32.04 31.79 31.56 31.96 32.38 32.53 32.65 32.86 32.93 32.77 32.06 31.50 31.87 32.36 32.47 31.68 31.02 30.48 30.02 29.40 28.94 28.69 28.38 28.15 28.02 27.94 27.85 28.03 28.34 28.86 29.40 29.64 29.80 29.79 29.73 29.77 29.36 28.58 27.40 27.37 27.32 27.00 26.34 25.93 25.61 25.45 25.44 25.30 25.11 24.90 24.83 24.77 24.70 24.62 24.48 24.52
37.08 37.28 37.28 37.17 36.78 36.31 35.86 35.48 34.93 33.98 33.04 32.16 31.94 31.99 32.25 32.42 32.73 32.78 32.97 33.30 33.25 32.99 32.62 31.84 31.98 32.38 32.57 32.19 31.48 30.93 30.30 29.50 28.93 28.46 28.29 28.17 27.75 27.33 27.14 26.95 27.45 27.94 28.55 28.97 29.23 29.21 29.24 29.18 29.21 28.92 27.99 26.61 26.65 26.72 26.60 26.06 25.68 25.38 25.20 25.22 25.19 25.14 24.98 24.86 24.73 24.63 24.53 24.38 24.27
36.89 36.88 36.75 36.64 36.12 35.82 35.49 35.05 33.79 32.68 31.97 31.92 32.14 32.57 33.10 33.64 33.87 33.76 33.53 33.22 32.37 31.50 30.87 30.90 31.94 32.37 32.20 31.33 30.76 30.21 29.64 28.82 28.35 27.97 27.61 27.14 26.60 26.52 26.50 26.50 26.74 27.46 28.19 28.51 28.72 28.88 28.85 28.94 28.85 28.38 27.53 26.07 26.24 26.36 26.28 25.88 25.54 25.31 25.16 25.14 25.05 25.07 24.98 24.91 24.75 24.49 24.34 24.14 23.98
36.12 35.92 35.75 35.49 35.34 35.28 34.98 34.05 32.69 31.90 31.79 32.02 32.45 33.17 33.82 34.51 34.20 33.30 32.22 31.39 30.63 30.10 30.04 30.74 31.81 32.02 31.46 30.49 30.01 29.48 28.86 28.21 27.80 27.28 26.77 26.43 26.15 26.06 26.03 26.22 26.47 27.04 27.84 28.17 28.39 28.53 28.56 28.64 28.56 27.96 27.09 25.81 25.91 26.16 26.17 25.80 25.56 25.45 25.32 25.22 25.13 24.96 24.80 24.58 24.43 24.25 24.07 23.91 23.67
35.52 35.27 35.03 34.95 35.09 35.05 34.55 33.38 32.22 31.67 31.80 32.29 32.89 33.55 34.14 34.83 33.61 32.06 30.60 29.67 29.73 30.19 30.87 31.69 32.09 31.88 31.29 30.35 29.41 28.75 28.21 27.70 27.02 26.32 25.81 25.48 25.45 25.58 25.76 25.98 26.43 26.73 27.21 27.87 28.17 28.26 28.20 28.17 28.14 27.68 26.81 25.67 25.99 26.17 26.22 25.78 25.64 25.52 25.29 25.30 25.21 25.05 24.75 24.40 24.07 23.91 23.71 23.55 23.63
35.58 35.06 34.82 34.82 34.87 34.70 34.23 33.10 31.98 31.61 31.81 32.60 33.42 33.93 34.16 34.42 33.65 32.57 31.25 30.01 29.86 30.39 31.25 32.06 32.31 32.01 31.24 30.34 29.27 28.55 28.02 27.44 26.73 26.06 25.60 25.22 25.08 25.24 25.54 25.92 26.37 26.31 26.46 27.60 27.93 28.01 27.99 27.84 27.78 27.42 26.72 25.73 26.21 26.26 26.11 25.61 25.51 25.30 25.15 25.14 25.11 25.00 24.77 24.38 24.08 23.81 23.60 23.36 23.55
35.49 35.06 34.75 34.78 34.75 34.39 33.80 32.80 31.85 31.66 31.97 32.87 34.00 34.47 34.40 34.03 33.53 32.79 31.94 30.55 29.90 29.99 30.53 30.94 31.11 30.80 30.14 29.11 28.82 28.29 27.78 26.94 26.49 25.80 25.37 25.03 24.98 25.12 25.30 25.42 25.72 25.57 25.73 27.32 27.71 27.85 27.68 27.45 27.50 27.25 26.94 26.32 26.54 26.48 26.07 25.53 25.33 25.11 24.98 24.94 24.86 24.74 24.48 24.20 23.98 23.78 23.66 23.55 23.66
35.19 34.81 34.54 34.66 34.40 33.96 33.30 32.52 31.87 31.78 32.21 33.18 34.26 34.95 34.95 33.95 32.82 31.87 31.01 30.12 29.92 30.03 30.11 29.89 29.51 29.24 28.87 28.39 28.31 27.88 27.38 26.68 26.05 25.55 25.15 24.75 24.76 24.96 25.08 25.14 25.26 25.00 25.20 26.90 27.43 27.51 27.34 27.25 27.33 27.33 27.16 27.02 26.85 26.49 26.03 25.50 25.26 25.07 24.96 24.82 24.66 24.39 24.20 24.01 23.80 23.71 23.72 23.72 23.78
35.02 34.45 34.08 33.92 33.80 33.58 33.05 32.43 31.82 31.99 32.65 33.65 34.48 34.93 34.74 33.70 32.41 31.08 30.05 29.92 30.41 30.55 30.25 29.59 28.93 28.74 28.90 29.16 28.55 27.78 27.07 26.39 25.73 25.40 25.06 24.67 24.73 24.82 24.83 24.91 24.99 24.71 24.84 26.33 27.15 27.28 27.14 27.11 27.25 27.33 27.35 27.26 26.78 26.23 25.71 25.38 25.19 25.03 24.88 24.66 24.42 24.33 24.07 23.90 23.72 23.71 23.64 23.53 23.55
34.64 33.80 33.23 33.00 33.22 33.15 32.90 32.38 32.10 32.39 33.10 34.16 34.31 34.13 33.58 32.70 31.94 30.50 29.52 30.10 31.28 31.31 30.69 29.68 29.24 29.29 29.45 29.36 28.44 27.44 26.58 25.85 25.47 25.17 25.06 24.63 24.63 24.60 24.55 24.50 24.64 24.61 24.79 25.67 26.55 26.86 26.91 27.06 27.25 27.38 27.32 27.12 26.54 25.96 25.40 25.15 24.93 24.78 24.64 24.40 24.20 24.05 23.85 23.66 23.56 23.55 23.37 23.25 22.92
33.79 32.99 32.45 32.45 32.60 32.67 32.62 32.50 32.70 33.07 33.63 34.25 34.09 33.70 33.13 32.23 31.42 30.42 29.83 30.27 31.43 31.57 30.86 30.05 29.90 29.74 29.42 28.63 27.69 26.75 25.85 25.23 25.00 24.86 24.86 24.81 24.72 24.42 24.18 24.13 24.37 24.41 24.51 24.97 25.93 26.43 26.66 26.94 27.17 27.27 27.21 26.99 26.49 25.88 25.42 24.97 24.61 24.42 24.20 24.02 23.64 23.34 23.26 23.22 23.22 23.16 23.07 22.90 22.66
32.84 32.10 31.73 31.86 32.13 32.31 32.52 32.88 33.45 33.85 34.24 34.40 34.13 34.04 33.64 32.52 31.29 30.84 30.57 30.13 30.49 30.23 29.94 30.32 30.39 29.89 28.95 27.78 26.93 26.02 25.25 24.79 24.65 24.45 24.37 24.40 24.34 23.99 23.61 23.78 24.08 24.09 24.22 24.41 25.33 26.04 26.46 26.72 27.08 27.18 27.15 27.15 26.62 26.06 25.52 24.92 24.34 23.98 23.73 23.41 22.89 22.48 22.41 22.61 22.72 22.75 22.61 22.61 22.57
31.70 31.21 31.06 31.49 31.99 32.36 32.74 33.20 34.17 34.81 35.06 35.06 34.82 34.60 33.83 32.01 30.78 30.84 30.88 30.10 29.53 29.16 29.29 30.29 30.18 29.44 28.39 27.12 26.34 25.53 24.73 24.27 24.30 23.96 23.69 23.31 23.47 23.44 23.26 23.22 23.36 23.71 24.09 24.31 24.83 25.50 26.10 26.52 26.88 27.10 27.07 27.07 26.62 26.20 25.64 24.96 24.13 23.56 23.09 22.73 22.28 21.88 21.60 21.68 22.07 22.19 22.20 22.26 22.49
MSLP
1026.02 1026.10 1026.14 1026.18 1026.30 1026.38 1026.46 1026.58 1026.70 1026.74 1026.74 1026.74 1026.78 1026.86 1026.86 1026.82 1026.86 1026.98 1027.02 1027.02 1027.06 1027.10 1027.14 1027.22 1027.30 1027.30 1027.34 1027.38 1027.34 1027.30 1027.26 1027.30 1027.26 1027.26 1027.22 1027.18 1027.14 1027.14 1027.14 1027.06 1027.02 1026.94 1026.86 1026.78 1026.70 1026.58 1026.50 1026.42 1026.34 1026.30 1026.30 1026.30 1026.22 1026.14 1026.06 1026.02 1025.90 1025.82 1025.70 1025.66 1025.54 1025.42 1025.34 1025.18 1025.06 1024.98 1024.90 1024.78 1024.70
1026.26 1026.30 1026.38 1026.42 1026.46 1026.54 1026.62 1026.74 1026.82 1026.86 1026.90 1026.90 1026.98 1027.02 1026.98 1026.98 1027.02 1027.10 1027.14 1027.18 1027.26 1027.30 1027.30 1027.34 1027.42 1027.42 1027.42 1027.42 1027.42 1027.42 1027.38 1027.38 1027.30 1027.30 1027.30 1027.30 1027.30 1027.26 1027.22 1027.18 1027.14 1027.10 1027.02 1026.90 1026.78 1026.70 1026.62 1026.54 1026.42 1026.38 1026.30 1026.30 1026.18 1026.14 1026.10 1026.06 1025.98 1025.86 1025.74 1025.66 1025.58 1025.46 1025.38 1025.22 1025.14 1025.02 1024.94 1024.78 1024.74
1026.42 1026.46 1026.50 1026.50 1026.54 1026.58 1026.70 1026.82 1026.86 1026.94 1026.98 1027.02 1027.10 1027.14 1027.14 1027.14 1027.18 1027.26 1027.30 1027.38 1027.42 1027.42 1027.42 1027.42 1027.46 1027.54 1027.58 1027.54 1027.54 1027.50 1027.50 1027.46 1027.42 1027.38 1027.34 1027.34 1027.38 1027.34 1027.30 1027.30 1027.22 1027.18 1027.14 1027.02 1026.94 1026.86 1026.74 1026.62 1026.54 1026.42 1026.38 1026.30 1026.22 1026.14 1026.10 1026.06 1026.02 1025.90 1025.78 1025.66 1025.58 1025.50 1025.38 1025.22 1025.14 1025.02 1024.94 1024.82 1024.70
1026.58 1026.58 1026.62 1026.66 1026.66 1026.74 1026.78 1026.90 1026.98 1027.02 1027.10 1027.14 1027.22 1027.22 1027.22 1027.30 1027.30 1027.38 1027.42 1027.46 1027.46 1027.46 1027.50 1027.54 1027.58 1027.58 1027.62 1027.62 1027.58 1027.58 1027.58 1027.58 1027.50 1027.42 1027.42 1027.42 1027.42 1027.42 1027.42 1027.34 1027.30 1027.22 1027.18 1027.14 1027.02 1026.94 1026.86 1026.74 1026.58 1026.50 1026.42 1026.30 1026.22 1026.14 1026.10 1026.02 1026.02 1025.94 1025.82 1025.70 1025.62 1025.54 1025.42 1025.30 1025.18 1025.06 1024.94 1024.86 1024.74
1026.74 1026.74 1026.78 1026.86 1026.86 1026.90 1026.98 1027.02 1027.10 1027.14 1027.18 1027.22 1027.30 1027.30 1027.34 1027.38 1027.42 1027.42 1027.42 1027.46 1027.54 1027.58 1027.62 1027.62 1027.62 1027.66 1027.70 1027.70 1027.66 1027.66 1027.62 1027.62 1027.62 1027.54 1027.46 1027.46 1027.42 1027.42 1027.42 1027.38 1027.30 1027.26 1027.18 1027.14 1027.06 1027.02 1026.90 1026.82 1026.66 1026.50 1026.42 1026.30 1026.22 1026.14 1026.14 1026.10 1026.02 1025.90 1025.82 1025.70 1025.58 1025.50 1025.42 1025.30 1025.22 1025.14 1025.02 1024.86 1024.74
1026.86 1026.90 1026.98 1027.02 1027.02 1027.06 1027.14 1027.14 1027.18 1027.22 1027.30 1027.30 1027.30 1027.30 1027.38 1027.42 1027.46 1027.46 1027.46 1027.54 1027.62 1027.70 1027.70 1027.74 1027.74 1027.74 1027.70 1027.70 1027.70 1027.70 1027.66 1027.62 1027.58 1027.58 1027.54 1027.46 1027.42 1027.42 1027.42 1027.38 1027.38 1027.30 1027.22 1027.14 1027.10 1027.02 1026.94 1026.82 1026.66 1026.54 1026.42 1026.38 1026.26 1026.14 1026.14 1026.14 1026.02 1025.90 1025.78 1025.66 1025.58 1025.54 1025.46 1025.38 1025.30 1025.18 1025.06 1024.90 1024.78
1026.94 1027.02 1027.06 1027.10 1027.14 1027.14 1027.22 1027.30 1027.30 1027.34 1027.34 1027.38 1027.34 1027.38 1027.42 1027.42 1027.50 1027.54 1027.58 1027.58 1027.66 1027.70 1027.78 1027.78 1027.74 1027.74 1027.70 1027.70 1027.70 1027.66 1027.62 1027.58 1027.58 1027.58 1027.54 1027.46 1027.42 1027.42 1027.42 1027.34 1027.30 1027.30 1027.22 1027.14 1027.10 1027.02 1026.86 1026.78 1026.66 1026.50 1026.42 1026.42 1026.30 1026.14 1026.14 1026.14 1026.02 1025.94 1025.82 1025.66 1025.58 1025.54 1025.46 1025.42 1025.38 1025.30 1025.14 1024.98 1024.86
1027.06 1027.10 1027.14 1027.18 1027.22 1027.26 1027.30 1027.30 1027.34 1027.34 1027.34 1027.38 1027.42 1027.42 1027.46 1027.50 1027.54 1027.58 1027.58 1027.62 1027.70 1027.70 1027.74 1027.78 1027.78 1027.78 1027.78 1027.70 1027.70 1027.66 1027.62 1027.58 1027.58 1027.54 1027.50 1027.46 1027.42 1027.38 1027.34 1027.30 1027.26 1027.22 1027.18 1027.14 1027.02 1026.94 1026.86 1026.74 1026.58 1026.46 1026.38 1026.34 1026.26 1026.14 1026.10 1026.06 1026.02 1025.94 1025.82 1025.66 1025.58 1025.50 1025.50 1025.46 1025.42 1025.34 1025.22 1025.06 1024.94
1027.14 1027.18 1027.26 1027.26 1027.30 1027.30 1027.34 1027.34 1027.38 1027.38 1027.38 1027.38 1027.46 1027.50 1027.54 1027.54 1027.58 1027.58 1027.58 1027.62 1027.70 1027.74 1027.74 1027.78 1027.82 1027.82 1027.82 1027.74 1027.70 1027.66 1027.62 1027.58 1027.58 1027.54 1027.50 1027.46 1027.42 1027.38 1027.30 1027.26 1027.18 1027.14 1027.14 1027.10 1027.02 1026.98 1026.86 1026.74 1026.58 1026.46 1026.38 1026.30 1026.18 1026.10 1026.02 1026.02 1025.98 1025.86 1025.78 1025.66 1025.54 1025.46 1025.42 1025.42 1025.30 1025.26 1025.14 1025.02 1024.94
1027.14 1027.22 1027.26 1027.30 1027.34 1027.38 1027.42 1027.42 1027.42 1027.42 1027.42 1027.42 1027.50 1027.58 1027.58 1027.58 1027.58 1027.58 1027.58 1027.62 1027.70 1027.70 1027.70 1027.74 1027.82 1027.82 1027.78 1027.74 1027.70 1027.70 1027.70 1027.66 1027.58 1027.54 1027.50 1027.46 1027.42 1027.38 1027.30 1027.22 1027.18 1027.14 1027.02 1027.02 1026.98 1026.90 1026.82 1026.74 1026.58 1026.46 1026.38 1026.30 1026.14 1026.06 1026.02 1026.02 1025.90 1025.82 1025.70 1025.58 1025.50 1025.42 1025.34 1025.22 1025.14 1025.06 1024.98 1024.90 1024.86
1027.18 1027.22 1027.30 1027.30 1027.34 1027.42 1027.42 1027.42 1027.42 1027.42 1027.42 1027.42 1027.50 1027.58 1027.58 1027.62 1027.58 1027.62 1027.66 1027.70 1027.70 1027.70 1027.70 1027.78 1027.82 1027.78 1027.70 1027.70 1027.70 1027.70 1027.70 1027.70 1027.66 1027.62 1027.54 1027.46 1027.42 1027.38 1027.30 1027.26 1027.18 1027.14 1027.02 1026.98 1026.94 1026.86 1026.78 1026.74 1026.58 1026.42 1026.34 1026.30 1026.14 1026.02 1025.90 1025.86 1025.78 1025.70 1025.58 1025.50 1025.42 1025.30 1025.22 1025.06 1025.02 1024.90 1024.82 1024.74 1024.70
1027.22 1027.30 1027.30 1027.30 1027.38 1027.42 1027.42 1027.42 1027.42 1027.42 1027.46 1027.46 1027.50 1027.54 1027.58 1027.58 1027.62 1027.66 1027.70 1027.70 1027.66 1027.66 1027.74 1027.82 1027.82 1027.78 1027.70 1027.66 1027.70 1027.74 1027.74 1027.74 1027.70 1027.62 1027.54 1027.46 1027.42 1027.34 1027.30 1027.22 1027.14 1027.10 1027.02 1026.98 1026.94 1026.86 1026.78 1026.66 1026.58 1026.46 1026.34 1026.22 1026.06 1025.94 1025.86 1025.78 1025.70 1025.58 1025.50 1025.42 1025.30 1025.18 1025.10 1025.02 1024.94 1024.82 1024.74 1024.66 1024.58
1027.26 1027.30 1027.30 1027.34 1027.38 1027.38 1027.38 1027.38 1027.42 1027.42 1027.46 1027.46 1027.50 1027.54 1027.58 1027.58 1027.70 1027.70 1027.70 1027.66 1027.66 1027.70 1027.70 1027.82 1027.82 1027.78 1027.70 1027.70 1027.70 1027.70 1027.70 1027.70 1027.70 1027.62 1027.54 1027.46 1027.42 1027.30 1027.26 1027.18 1027.14 1027.10 1027.02 1026.94 1026.94 1026.86 1026.74 1026.66 1026.58 1026.42 1026.30 1026.18 1026.10 1025.94 1025.86 1025.74 1025.66 1025.58 1025.42 1025.30 1025.22 1025.14 1025.02 1024.98 1024.90 1024.86 1024.74 1024.66 1024.54
1027.30 1027.30 1027.30 1027.34 1027.38 1027.38 1027.38 1027.38 1027.42 1027.46 1027.46 1027.46 1027.50 1027.54 1027.58 1027.62 1027.70 1027.74 1027.70 1027.70 1027.70 1027.70 1027.74 1027.78 1027.78 1027.74 1027.74 1027.78 1027.74 1027.70 1027.70 1027.70 1027.66 1027.58 1027.54 1027.46 1027.38 1027.30 1027.26 1027.18 1027.14 1027.14 1027.06 1027.02 1026.98 1026.90 1026.82 1026.70 1026.58 1026.46 1026.34 1026.22 1026.14 1026.02 1025.90 1025.82 1025.70 1025.66 1025.54 1025.34 1025.22 1025.14 1025.06 1024.98 1024.90 1024.86 1024.78 1024.70 1024.58
1027.30 1027.30 1027.30 1027.34 1027.38 1027.38 1027.38 1027.38 1027.42 1027.42 1027.46 1027.46 1027.50 1027.58 1027.62 1027.62 1027.70 1027.74 1027.74 1027.70 1027.70 1027.70 1027.70 1027.70 1027.70 1027.74 1027.82 1027.86 1027.82 1027.74 1027.70 1027.66 1027.58 1027.54 1027.46 1027.42 1027.38 1027.34 1027.30 1027.26 1027.18 1027.14 1027.14 1027.06 1026.98 1026.90 1026.86 1026.74 1026.66 1026.54 1026.42 1026.30 1026.14 1026.06 1026.02 1025.94 1025.86 1025.74 1025.58 1025.42 1025.30 1025.18 1025.10 1025.02 1024.90 1024.86 1024.78 1024.74 1024.58
1027.26 1027.30 1027.30 1027.34 1027.34 1027.34 1027.38 1027.38 1027.42 1027.42 1027.42 1027.42 1027.50 1027.58 1027.62 1027.58 1027.70 1027.78 1027.78 1027.70 1027.70 1027.70 1027.70 1027.66 1027.66 1027.70 1027.74 1027.82 1027.82 1027.78 1027.70 1027.58 1027.54 1027.50 1027.42 1027.38 1027.38 1027.38 1027.34 1027.30 1027.26 1027.22 1027.14 1027.10 1027.02 1026.90 1026.86 1026.78 1026.66 1026.58 1026.42 1026.30 1026.18 1026.10 1026.02 1025.98 1025.86 1025.74 1025.58 1025.42 1025.30 1025.22 1025.14 1025.02 1024.94 1024.86 1024.82 1024.74 1024.62
1027.26 1027.30 1027.30 1027.30 1027.34 1027.34 1027.34 1027.38 1027.38 1027.42 1027.42 1027.46 1027.54 1027.58 1027.62 1027.66 1027.70 1027.74 1027.74 1027.70 1027.70 1027.62 1027.58 1027.62 1027.62 1027.62 1027.62 1027.66 1027.70 1027.70 1027.62 1027.58 1027.50 1027.46 1027.46 1027.42 1027.46 1027.42 1027.38 1027.34 1027.30 1027.30 1027.18 1027.10 1026.98 1026.86 1026.78 1026.70 1026.62 1026.54 1026.42 1026.30 1026.22 1026.14 1026.06 1025.98 1025.86 1025.70 1025.58 1025.42 1025.34 1025.26 1025.14 1025.10 1025.02 1024.86 1024.78 1024.70 1024.58
1027.22 1027.26 1027.30 1027.30 1027.30 1027.30 1027.34 1027.34 1027.38 1027.42 1027.42 1027.50 1027.58 1027.58 1027.66 1027.70 1027.70 1027.70 1027.70 1027.70 1027.70 1027.62 1027.58 1027.58 1027.62 1027.58 1027.58 1027.58 1027.62 1027.58 1027.58 1027.54 1027.50 1027.54 1027.54 1027.54 1027.58 1027.50 1027.42 1027.42 1027.34 1027.30 1027.18 1027.10 1026.98 1026.86 1026.74 1026.66 1026.58 1026.46 1026.38 1026.30 1026.22 1026.14 1026.06 1025.98 1025.86 1025.70 1025.58 1025.50 1025.42 1025.30 1025.22 1025.10 1025.02 1024.86 1024.74 1024.62 1024.54
1027.14 1027.18 1027.22 1027.26 1027.26 1027.30 1027.30 1027.34 1027.38 1027.38 1027.42 1027.50 1027.58 1027.58 1027.66 1027.70 1027.70 1027.66 1027.66 1027.70 1027.70 1027.66 1027.58 1027.58 1027.58 1027.58 1027.58 1027.58 1027.58 1027.58 1027.58 1027.58 1027.58 1027.58 1027.58 1027.58 1027.58 1027.54 1027.46 1027.42 1027.34 1027.26 1027.18 1027.06 1026.94 1026.82 1026.74 1026.62 1026.54 1026.42 1026.30 1026.26 1026.18 1026.14 1026.02 1025.94 1025.82 1025.70 1025.62 1025.58 1025.46 1025.34 1025.22 1025.10 1024.98 1024.86 1024.78 1024.66 1024.54
1027.14 1027.14 1027.14 1027.18 1027.22 1027.26 1027.30 1027.34 1027.38 1027.42 1027.46 1027.50 1027.58 1027.58 1027.62 1027.66 1027.70 1027.66 1027.58 1027.58 1027.70 1027.70 1027.62 1027.58 1027.58 1027.54 1027.58 1027.58 1027.58 1027.58 1027.62 1027.62 1027.62 1027.62 1027.62 1027.62 1027.58 1027.54 1027.50 1027.42 1027.30 1027.22 1027.14 1027.02 1026.90 1026.82 1026.74 1026.58 1026.50 1026.38 1026.26 1026.18 1026.14 1026.02 1025.98 1025.86 1025.82 1025.74 1025.70 1025.58 1025.50 1025.38 1025.26 1025.14 1025.02 1024.90 1024.82 1024.74 1024.58
1027.02 1027.10 1027.14 1027.14 1027.18 1027.22 1027.26 1027.30 1027.38 1027.42 1027.50 1027.50 1027.54 1027.58 1027.58 1027.62 1027.66 1027.62 1027.58 1027.62 1027.70 1027.70 1027.62 1027.58 1027.58 1027.54 1027.58 1027.58 1027.58 1027.58 1027.62 1027.70 1027.66 1027.66 1027.66 1027.62 1027.58 1027.54 1027.50 1027.42 1027.30 1027.18 1027.06 1026.98 1026.86 1026.82 1026.70 1026.58 1026.46 1026.34 1026.22 1026.14 1026.06 1026.02 1025.94 1025.90 1025.86 1025.74 1025.66 1025.58 1025.50 1025.38 1025.26 1025.14 1025.06 1024.98 1024.86 1024.74 1024.66
1026.98 1027.02 1027.10 1027.14 1027.18 1027.22 1027.30 1027.34 1027.42 1027.46 1027.50 1027.46 1027.50 1027.54 1027.58 1027.58 1027.58 1027.58 1027.62 1027.70 1027.70 1027.66 1027.62 1027.58 1027.58 1027.58 1027.58 1027.58 1027.58 1027.62 1027.66 1027.70 1027.70 1027.70 1027.66 1027.58 1027.58 1027.54 1027.54 1027.42 1027.30 1027.18 1027.06 1027.02 1026.86 1026.74 1026.66 1026.54 1026.42 1026.34 1026.30 1026.18 1026.14 1026.10 1026.06 1026.02 1025.86 1025.74 1025.62 1025.50 1025.42 1025.30 1025.22 1025.14 1025.14 1025.02 1024.90 1024.78 1024.70
1026.94 1027.02 1027.10 1027.14 1027.18 1027.30 1027.38 1027.42 1027.42 1027.42 1027.42 1027.42 1027.46 1027.50 1027.58 1027.58 1027.58 1027.62 1027.66 1027.70 1027.66 1027.62 1027.62 1027.62 1027.66 1027.70 1027.70 1027.70 1027.70 1027.66 1027.66 1027.66 1027.66 1027.66 1027.62 1027.58 1027.54 1027.50 1027.46 1027.42 1027.30 1027.22 1027.14 1027.02 1026.90 1026.82 1026.66 1026.50 1026.42 1026.38 1026.34 1026.30 1026.30 1026.22 1026.14 1026.10 1025.94 1025.74 1025.58 1025.46 1025.38 1025.26 1025.18 1025.14 1025.10 1025.02 1024.90 1024.78 1024.70
1026.90 1027.02 1027.06 1027.14 1027.18 1027.26 1027.30 1027.34 1027.38 1027.38 1027.38 1027.42 1027.42 1027.54 1027.58 1027.58 1027.58 1027.62 1027.62 1027.62 1027.62 1027.58 1027.58 1027.62 1027.70 1027.74 1027.78 1027.78 1027.74 1027.70 1027.62 1027.58 1027.58 1027.58 1027.58 1027.54 1027.50 1027.46 1027.42 1027.34 1027.30 1027.26 1027.18 1027.10 1027.02 1026.90 1026.74 1026.58 1026.46 1026.42 1026.42 1026.42 1026.34 1026.30 1026.18 1026.10 1025.94 1025.74 1025.58 1025.50 1025.34 1025.22 1025.14 1025.10 1025.02 1024.94 1024.86 1024.74 1024.62
1026.94 1027.02 1027.06 1027.10 1027.14 1027.18 1027.22 1027.26 1027.30 1027.30 1027.30 1027.34 1027.42 1027.54 1027.58 1027.58 1027.54 1027.50 1027.50 1027.50 1027.54 1027.58 1027.62 1027.66 1027.70 1027.74 1027.74 1027.74 1027.70 1027.70 1027.66 1027.58 1027.58 1027.54 1027.50 1027.50 1027.50 1027.50 1027.42 1027.38 1027.34 1027.30 1027.26 1027.14 1027.06 1026.98 1026.86 1026.74 1026.62 1026.58 1026.54 1026.50 1026.42 1026.30 1026.22 1026.10 1025.98 1025.86 1025.70 1025.58 1025.42 1025.26 1025.14 1025.02 1024.90 1024.86 1024.78 1024.62 1024.54
1026.98 1026.98 1027.02 1027.02 1027.06 1027.10 1027.14 1027.14 1027.14 1027.18 1027.26 1027.34 1027.42 1027.50 1027.50 1027.50 1027.50 1027.42 1027.38 1027.42 1027.46 1027.58 1027.62 1027.62 1027.66 1027.66 1027.66 1027.66 1027.66 1027.66 1027.62 1027.58 1027.62 1027.58 1027.54 1027.50 1027.46 1027.46 1027.46 1027.42 1027.38 1027.38 1027.30 1027.18 1027.10 1026.98 1026.86 1026.78 1026.74 1026.74 1026.66 1026.58 1026.50 1026.38 1026.22 1026.10 1026.02 1025.90 1025.74 1025.58 1025.42 1025.30 1025.14 1024.98 1024.86 1024.74 1024.70 1024.58 1024.46
1026.90 1026.90 1026.90 1026.90 1026.98 1027.02 1027.02 1027.06 1027.14 1027.18 1027.26 1027.30 1027.34 1027.38 1027.42 1027.42 1027.42 1027.34 1027.30 1027.30 1027.38 1027.50 1027.58 1027.58 1027.58 1027.58 1027.58 1027.58 1027.58 1027.58 1027.58 1027.58 1027.66 1027.66 1027.58 1027.58 1027.54 1027.50 1027.46 1027.42 1027.42 1027.38 1027.30 1027.22 1027.10 1026.98 1026.86 1026.78 1026.74 1026.74 1026.74 1026.66 1026.58 1026.42 1026.30 1026.14 1026.02 1025.86 1025.74 1025.58 1025.46 1025.34 1025.18 1025.02 1024.86 1024.74 1024.62 1024.50 1024.42
1026.86 1026.82 1026.86 1026.86 1026.86 1026.90 1026.94 1027.02 1027.14 1027.14 1027.18 1027.22 1027.26 1027.30 1027.30 1027.30 1027.30 1027.30 1027.22 1027.18 1027.30 1027.30 1027.38 1027.42 1027.46 1027.50 1027.50 1027.50 1027.50 1027.54 1027.58 1027.62 1027.66 1027.70 1027.70 1027.62 1027.58 1027.54 1027.50 1027.46 1027.42 1027.42 1027.34 1027.26 1027.14 1027.02 1026.90 1026.78 1026.74 1026.74 1026.74 1026.74 1026.62 1026.54 1026.38 1026.22 1026.06 1025.90 1025.70 1025.58 1025.42 1025.34 1025.18 1025.02 1024.90 1024.74 1024.62 1024.46 1024.34
1026.74 1026.74 1026.74 1026.78 1026.78 1026.82 1026.90 1027.02 1027.02 1027.06 1027.10 1027.14 1027.22 1027.22 1027.22 1027.18 1027.14 1027.14 1027.14 1027.14 1027.14 1027.14 1027.18 1027.30 1027.38 1027.38 1027.38 1027.42 1027.46 1027.58 1027.62 1027.66 1027.70 1027.70 1027.70 1027.62 1027.58 1027.54 1027.50 1027.46 1027.42 1027.42 1027.38 1027.30 1027.14 1027.02 1026.94 1026.82 1026.74 1026.74 1026.78 1026.82 1026.74 1026.58 1026.42 1026.26 1026.14 1025.94 1025.78 1025.62 1025.50 1025.34 1025.22 1025.06 1024.94 1024.78 1024.58 1024.42 1024.30
1026.74 1026.74 1026.70 1026.70 1026.74 1026.78 1026.86 1026.86 1026.94 1026.98 1027.02 1027.06 1027.10 1027.10 1027.06 1027.02 1027.02 1026.98 1026.98 1026.98 1026.98 1027.02 1027.06 1027.14 1027.22 1027.26 1027.30 1027.38 1027.46 1027.54 1027.58 1027.66 1027.74 1027.70 1027.70 1027.62 1027.58 1027.50 1027.46 1027.46 1027.42 1027.38 1027.34 1027.30 1027.14 1027.06 1026.98 1026.86 1026.78 1026.78 1026.86 1026.86 1026.82 1026.62 1026.46 1026.30 1026.14 1025.98 1025.82 1025.66 1025.54 1025.38 1025.26 1025.10 1024.94 1024.78 1024.66 1024.46 1024.30
1026.70 1026.70 1026.70 1026.70 1026.70 1026.70 1026.74 1026.78 1026.86 1026.90 1026.94 1026.98 1026.94 1026.90 1026.86 1026.86 1026.78 1026.78 1026.82 1026.86 1026.86 1027.02 1027.10 1027.14 1027.14 1027.14 1027.22 1027.38 1027.46 1027.54 1027.58 1027.66 1027.70 1027.70 1027.66 1027.58 1027.58 1027.50 1027.46 1027.42 1027.42 1027.38 1027.34 1027.30 1027.14 1027.10 1027.02 1026.90 1026.82 1026.82 1026.86 1026.86 1026.78 1026.66 1026.46 1026.30 1026.14 1026.02 1025.86 1025.70 1025.58 1025.42 1025.30 1025.14 1024.98 1024.82 1024.66 1024.50 1024.34
1026.74 1026.74 1026.74 1026.70 1026.66 1026.66 1026.66 1026.74 1026.78 1026.82 1026.82 1026.82 1026.78 1026.74 1026.70 1026.66 1026.62 1026.66 1026.74 1026.82 1026.90 1027.02 1027.06 1027.10 1027.06 1027.10 1027.22 1027.30 1027.42 1027.46 1027.58 1027.62 1027.62 1027.62 1027.62 1027.58 1027.58 1027.54 1027.50 1027.42 1027.42 1027.38 1027.34 1027.30 1027.18 1027.14 1027.02 1026.94 1026.86 1026.86 1026.86 1026.86 1026.74 1026.62 1026.46 1026.30 1026.14 1025.98 1025.86 1025.70 1025.58 1025.46 1025.34 1025.18 1025.02 1024.86 1024.74 1024.54 1024.42
1026.74 1026.70 1026.66 1026.62 1026.58 1026.54 1026.54 1026.62 1026.66 1026.70 1026.66 1026.62 1026.62 1026.58 1026.54 1026.50 1026.54 1026.58 1026.70 1026.78 1026.86 1026.86 1026.86 1026.86 1026.90 1026.98 1027.02 1027.14 1027.30 1027.42 1027.50 1027.58 1027.62 1027.66 1027.66 1027.66 1027.62 1027.58 1027.46 1027.42 1027.38 1027.38 1027.38 1027.30 1027.22 1027.14 1027.02 1026.94 1026.86 1026.86 1026.86 1026.86 1026.74 1026.54 1026.38 1026.30 1026.14 1025.98 1025.82 1025.70 1025.58 1025.46 1025.34 1025.22 1025.06 1024.90 1024.78 1024.66 1024.46
1026.58 1026.58 1026.58 1026.46 1026.42 1026.42 1026.42 1026.46 1026.58 1026.58 1026.58 1026.46 1026.42 1026.42 1026.42 1026.42 1026.42 1026.42 1026.54 1026.62 1026.74 1026.74 1026.74 1026.74 1026.74 1026.82 1026.90 1027.02 1027.18 1027.30 1027.42 1027.50 1027.58 1027.62 1027.62 1027.62 1027.58 1027.54 1027.42 1027.42 1027.38 1027.42 1027.46 1027.34 1027.18 1027.14 1027.06 1026.98 1026.86 1026.82 1026.82 1026.78 1026.62 1026.42 1026.30 1026.18 1026.06 1025.90 1025.74 1025.66 1025.54 1025.42 1025.34 1025.26 1025.14 1024.98 1024.86 1024.70 1024.50
1026.42 1026.42 1026.42 1026.34 1026.30 1026.30 1026.34 1026.38 1026.42 1026.46 1026.46 1026.38 1026.30 1026.30 1026.30 1026.30 1026.30 1026.30 1026.38 1026.46 1026.58 1026.62 1026.66 1026.70 1026.78 1026.86 1026.98 1027.14 1027.22 1027.30 1027.38 1027.46 1027.54 1027.58 1027.62 1027.62 1027.58 1027.46 1027.42 1027.42 1027.42 1027.50 1027.46 1027.30 1027.18 1027.14 1027.06 1027.02 1026.86 1026.78 1026.74 1026.66 1026.50 1026.34 1026.22 1026.10 1025.94 1025.82 1025.70 1025.58 1025.42 1025.34 1025.30 1025.18 1025.10 1024.98 1024.86 1024.70 1024.54
1026.34 1026.34 1026.30 1026.26 1026.22 1026.18 1026.22 1026.30 1026.34 1026.34 1026.30 1026.26 1026.18 1026.14 1026.18 1026.18 1026.22 1026.30 1026.34 1026.42 1026.46 1026.50 1026.58 1026.70 1026.82 1026.94 1027.06 1027.18 1027.26 1027.30 1027.34 1027.42 1027.50 1027.58 1027.62 1027.62 1027.54 1027.42 1027.42 1027.42 1027.42 1027.46 1027.46 1027.30 1027.14 1027.10 1027.06 1026.98 1026.86 1026.74 1026.62 1026.54 1026.42 1026.30 1026.14 1026.02 1025.86 1025.74 1025.58 1025.46 1025.34 1025.26 1025.18 1025.14 1025.06 1024.94 1024.86 1024.74 1024.58
1026.26 1026.26 1026.26 1026.14 1026.10 1026.10 1026.10 1026.14 1026.18 1026.22 1026.18 1026.10 1026.06 1026.06 1026.10 1026.10 1026.14 1026.26 1026.34 1026.38 1026.34 1026.38 1026.46 1026.62 1026.78 1026.90 1027.02 1027.06 1027.14 1027.26 1027.34 1027.42 1027.46 1027.54 1027.58 1027.58 1027.54 1027.42 1027.42 1027.38 1027.42 1027.42 1027.42 1027.34 1027.18 1027.10 1027.02 1026.98 1026.82 1026.70 1026.54 1026.42 1026.30 1026.22 1026.10 1025.94 1025.82 1025.66 1025.50 1025.38 1025.26 1025.18 1025.14 1025.10 1025.02 1024.90 1024.82 1024.74 1024.66
1026.14 1026.14 1026.14 1026.06 1026.02 1025.94 1025.98 1026.02 1026.02 1026.02 1025.98 1025.90 1025.90 1025.98 1026.02 1026.02 1026.06 1026.18 1026.30 1026.30 1026.18 1026.22 1026.34 1026.50 1026.66 1026.78 1026.86 1026.94 1027.10 1027.26 1027.38 1027.42 1027.46 1027.46 1027.50 1027.54 1027.54 1027.46 1027.42 1027.38 1027.42 1027.42 1027.42 1027.30 1027.18 1027.10 1027.02 1026.94 1026.78 1026.62 1026.50 1026.38 1026.30 1026.14 1026.06 1025.90 1025.78 1025.62 1025.50 1025.34 1025.22 1025.14 1025.10 1025.06 1025.02 1024.86 1024.78 1024.74 1024.74
1026.02 1026.02 1026.02 1025.98 1025.90 1025.86 1025.86 1025.86 1025.86 1025.82 1025.74 1025.70 1025.78 1025.86 1025.90 1025.94 1025.98 1026.10 1026.18 1026.22 1026.14 1026.14 1026.18 1026.34 1026.46 1026.58 1026.74 1026.90 1027.02 1027.18 1027.34 1027.42 1027.50 1027.50 1027.46 1027.50 1027.50 1027.50 1027.46 1027.42 1027.38 1027.38 1027.42 1027.34 1027.22 1027.10 1027.02 1026.90 1026.78 1026.58 1026.46 1026.34 1026.26 1026.14 1026.06 1025.90 1025.74 1025.62 1025.46 1025.34 1025.26 1025.14 1025.06 1025.02 1024.94 1024.86 1024.74 1024.74 1024.70
1025.94 1025.94 1025.94 1025.86 1025.78 1025.74 1025.70 1025.70 1025.66 1025.62 1025.58 1025.58 1025.66 1025.70 1025.70 1025.78 1025.86 1025.98 1026.06 1026.14 1026.14 1026.14 1026.14 1026.22 1026.30 1026.46 1026.66 1026.86 1026.98 1027.14 1027.30 1027.38 1027.42 1027.50 1027.50 1027.46 1027.50 1027.54 1027.50 1027.46 1027.42 1027.38 1027.34 1027.30 1027.22 1027.10 1026.98 1026.86 1026.74 1026.58 1026.42 1026.30 1026.26 1026.14 1026.06 1025.90 1025.70 1025.58 1025.42 1025.34 1025.30 1025.14 1025.02 1024.94 1024.90 1024.82 1024.74 1024.66 1024.58
1025.86 1025.86 1025.86 1025.74 1025.70 1025.62 1025.58 1025.54 1025.46 1025.46 1025.46 1025.50 1025.50 1025.54 1025.62 1025.70 1025.82 1025.86 1025.94 1026.06 1026.10 1026.10 1026.14 1026.14 1026.22 1026.42 1026.62 1026.82 1026.94 1027.10 1027.18 1027.30 1027.34 1027.42 1027.50 1027.54 1027.50 1027.50 1027.54 1027.50 1027.42 1027.34 1027.30 1027.26 1027.18 1027.14 1027.02 1026.86 1026.70 1026.54 1026.42 1026.30 1026.22 1026.14 1026.02 1025.86 1025.70 1025.58 1025.46 1025.42 1025.34 1025.22 1025.10 1024.94 1024.86 1024.82 1024.74 1024.62 1024.50
Wind_Speed
7 6 6 5 5 5 5 5 4 4 4 4 4 4 4 4 4 4 3 3 3 3 3 3 3 4 4 6 6 6 7 7 7 8 8 8 8 8 7 7 7 7 7 7 6 6 6 6 5 4 3 3 3 4 4 4 4 4 4 4 4 4 5 6 6 6 7 7 6
8 7 6 6 5 5 5 5 4 4 4 4 4 4 4 4 4 4 3 3 3 3 3 3 3 4 5 6 6 6 6 6 7 7 7 7 7 7 7 6 7 6 6 6 6 5 5 5 4 4 3 3 3 3 3 3 4 4 5 5 4 4 4 5 5 6 6 6 5
7 7 6 6 6 5 5 4 4 4 5 4 4 3 3 3 3 3 3 3 3 3 3 3 3 4 5 5 5 5 6 6 6 6 6 6 6 6 6 6 6 6 6 5 5 5 4 4 4 3 2 2 3 3 3 3 4 4 4 5 4 3 3 4 4 5 5 4 5
7 7 7 7 7 7 6 5 5 5 5 4 4 4 4 3 3 3 3 3 4 3 3 3 3 4 4 5 5 5 5 5 5 5 5 5 6 6 6 5 5 5 5 5 5 5 4 4 3 2 2 3 3 3 3 3 3 3 3 3 3 3 3 3 4 4 4 4 5
7 7 6 6 7 7 6 5 5 5 4 4 3 3 3 3 3 3 3 3 3 3 3 4 3 3 4 4 5 5 5 5 4 4 4 5 5 5 5 5 5 5 4 4 4 4 4 4 3 2 3 3 3 3 3 3 4 4 3 3 3 3 3 4 4 4 4 4 4
7 7 6 6 7 6 5 5 6 5 4 3 4 4 3 3 3 3 3 3 4 4 4 4 4 4 4 4 4 4 4 4 4 4 4 4 4 4 4 4 4 4 4 4 4 4 4 4 3 3 3 3 3 3 4 4 4 4 4 3 3 3 3 4 4 4 4 5 6
7 7 7 6 6 6 6 5 5 5 4 4 5 5 4 4 4 4 4 4 4 4 4 3 3 3 3 3 3 3 3 3 3 3 4 4 4 4 4 4 4 4 4 4 4 4 4 4 3 3 3 3 3 4 4 5 5 5 5 5 4 3 4 4 4 4 5 7 8
6 6 6 6 6 6 6 6 5 5 4 4 5 5 5 5 5 5 5 4 4 3 3 3 3 3 3 3 3 3 3 3 3 3 3 3 4 4 4 4 4 4 4 4 4 5 5 4 4 3 3 3 3 4 5 5 6 6 6 6 5 4 4 4 4 4 6 7 8
6 6 6 6 6 6 6 5 5 5 5 5 5 5 6 5 5 5 5 4 4 3 3 3 3 3 2 3 3 3 3 3 3 3 3 3 4 4 4 4 4 4 4 4 5 5 5 4 4 4 4 4 4 5 5 6 6 7 6 6 5 5 4 4 4 5 5 6 7
6 6 6 6 5 5 5 5 5 5 5 6 6 5 5 5 5 4 4 4 3 3 3 3 2 2 2 2 2 2 3 3 3 3 4 3 4 4 4 4 4 5 5 4 4 5 5 4 5 5 5 5 6 7 7 6 7 7 6 5 5 6 6 5 5 5 5 5 5
6 6 5 5 5 5 5 5 5 5 5 5 5 5 5 4 4 4 3 3 3 3 3 2 1 1 2 2 2 2 2 3 3 3 3 4 4 4 4 4 5 5 5 5 4 4 4 4 5 6 7 7 7 7 7 7 7 7 7 6 6 7 7 6 5 5 4 4 5
6 6 5 5 5 5 5 5 4 4 4 5 5 5 5 4 4 3 3 3 3 3 2 2 1 1 2 2 2 2 2 2 3 3 3 3 4 4 4 4 5 5 5 5 5 4 4 5 6 7 8 8 7 7 8 9 8 8 8 8 8 8 7 7 6 5 5 5 5
6 5 5 5 5 5 5 4 4 4 4 5 4 4 4 3 3 2 2 2 2 2 2 2 1 1 1 1 1 2 2 2 2 2 3 3 3 4 4 4 5 5 5 5 5 5 5 5 7 8 9 9 8 8 9 10 9 9 9 9 9 8 8 8 7 6 6 6 6
5 5 5 5 5 5 4 4 4 4 4 4 4 3 3 3 2 1 1 1 1 1 2 1 1 1 1 1 1 1 2 2 2 2 2 3 4 4 5 5 6 6 6 5 6 6 6 7 7 8 9 10 9 10 10 10 10 10 10 10 9 9 8 8 7 7 7 7 7
5 5 5 5 5 4 4 4 3 3 4 4 3 3 2 2 1 1 0 0 0 1 1 1 1 1 1 1 1 1 1 1 2 2 3 4 4 5 5 6 6 6 6 6 6 6 7 8 8 8 9 10 10 10 10 10 10 9 9 9 9 9 8 7 7 7 7 7 8
5 5 5 5 4 4 4 4 3 3 3 3 3 2 2 1 1 0 0 0 0 1 1 1 2 2 2 1 1 1 1 1 2 3 4 4 5 5 6 6 6 7 7 7 7 7 7 7 8 8 9 10 10 10 10 10 10 9 9 9 8 8 7 7 7 6 6 7 7
5 5 5 4 5 4 4 4 3 3 3 3 2 2 1 0 0 0 0 0 0 1 1 1 1 2 2 2 1 1 1 2 3 3 4 5 5 5 6 6 6 6 6 7 7 7 8 8 8 8 9 9 9 9 9 10 10 9 9 9 8 7 6 6 6 6 6 6 7
5 5 5 5 5 5 5 4 4 3 3 3 2 1 0 0 0 0 0 0 0 0 1 1 1 1 2 2 2 2 2 3 4 4 4 4 4 5 5 5 5 6 6 6 7 8 8 9 9 9 9 9 8 8 9 9 10 10 9 9 8 7 6 6 6 6 5 6 6
5 5 5 5 5 5 5 4 4 4 3 2 1 1 0 0 1 1 1 1 1 1 1 1 1 2 2 2 3 3 3 3 4 4 4 4 4 4 5 5 5 5 6 6 7 8 9 9 9 9 9 9 8 8 9 9 10 9 9 8 8 7 7 7 7 6 6 6 6
5 5 5 5 5 5 5 4 4 3 3 2 1 1 1 1 1 1 1 1 1 1 1 1 2 2 3 3 3 4 4 3 4 4 4 4 4 4 5 5 5 5 6 6 7 8 9 9 10 10 9 9 9 9 10 10 9 9 8 8 8 8 8 8 8 7 7 7 6
5 5 5 5 5 5 4 3 3 2 2 2 2 2 2 2 2 1 1 1 1 1 1 1 1 2 3 3 4 4 4 3 4 4 4 4 4 4 4 4 5 5 6 6 7 8 9 10 10 10 10 10 10 10 10 9 9 8 8 7 7 8 8 8 8 8 8 7 7
5 5 5 5 4 4 3 3 2 2 2 2 2 2 2 2 2 1 1 0 1 1 0 1 2 2 3 4 4 4 4 4 4 3 3 3 3 3 3 4 5 5 6 7 8 9 9 10 10 10 9 9 10 10 9 8 8 8 8 8 8 8 8 8 7 7 8 8 8
5 4 4 4 4 4 3 3 3 3 3 3 2 2 2 2 2 1 1 1 1 1 1 2 2 3 3 3 4 4 4 4 4 3 3 3 3 3 3 4 5 5 6 6 7 9 9 9 9 9 9 8 9 9 9 8 8 8 9 10 10 10 9 8 8 7 7 7 8
4 4 4 4 4 4 4 3 3 3 3 3 2 2 2 2 2 1 1 1 1 2 2 2 3 3 3 3 3 3 4 4 4 3 3 3 3 4 4 4 4 5 5 5 7 8 9 8 8 8 8 7 8 8 8 8 8 9 9 10 11 11 10 9 9 8 8 8 8
4 4 4 4 4 4 4 4 4 3 3 2 2 2 2 2 2 1 1 2 2 3 3 3 3 3 3 3 3 3 3 3 3 3 3 3 4 4 4 4 4 4 4 5 8 10 10 8 7 7 7 7 7 8 8 8 9 9 10 10 10 11 10 10 10 10 10 10 9
4 4 5 5 5 5 5 5 4 3 3 2 2 2 3 2 1 1 1 3 3 3 3 3 3 3 3 3 3 3 3 3 2 3 3 3 4 4 4 4 3 3 4 6 10 11 11 10 9 7 6 6 7 7 8 8 9 10 10 10 10 10 10 11 11 11 11 10 11
4 5 5 5 5 5 5 4 4 3 3 2 3 3 2 2 1 1 1 3 3 4 3 3 3 3 3 3 4 3 3 2 2 2 3 3 4 4 4 4 3 3 4 8 10 11 11 10 9 8 7 6 7 7 8 8 9 10 10 9 9 10 10 11 11 11 11 11 11
5 5 6 5 5 5 5 4 3 3 3 3 3 2 2 2 2 1 1 2 4 4 4 3 3 3 3 3 3 3 3 2 2 2 2 3 3 4 4 4 3 4 6 9 10 11 11 11 10 9 8 7 6 7 7 8 9 9 9 8 9 9 10 10 10 10 11 11 11
6 6 6 6 6 5 4 4 4 4 3 3 2 3 2 2 2 2 2 2 4 4 4 4 3 3 3 3 3 3 2 2 2 2 2 2 3 3 4 4 4 5 7 10 10 11 11 11 10 10 9 8 6 6 7 7 7 8 7 7 8 9 9 10 10 10 10 11 11
6 6 6 6 6 5 5 5 4 4 3 2 3 3 3 3 3 2 2 2 3 4 4 4 4 4 4 4 3 3 3 2 2 2 2 3 3 3 4 4 4 5 7 10 10 11 11 11 10 10 9 9 7 7 7 7 7 7 7 7 8 9 10 10 11 11 11 11 11
5 5 6 6 6 6 6 5 4 3 3 3 3 3 3 3 3 2 2 2 2 3 3 4 5 5 5 4 3 3 3 2 2 2 2 2 3 3 4 4 4 5 7 9 10 10 10 11 10 9 9 8 7 7 7 7 7 7 7 7 9 10 11 10 11 12 12 12 12
5 6 6 6 7 7 6 5 4 4 4 4 4 4 4 3 3 2 2 2 3 3 4 5 6 6 5 5 4 3 3 2 2 2 2 2 2 3 3 4 4 5 7 9 9 10 10 10 9 9 8 8 7 7 7 8 7 7 7 8 10 11 11 10 10 12 13 13 12
6 6 6 7 7 7 6 5 5 4 4 4 4 4 4 3 2 2 2 2 3 4 5 6 7 7 7 6 5 4 4 3 2 2 2 2 2 2 3 3 3 5 7 9 9 9 9 9 9 8 7 7 7 7 8 8 7 7 7 8 9 10 11 12 11 12 12 12 12
6 6 7 7 7 7 6 5 5 4 4 4 4 4 3 3 3 2 3 3 3 4 5 6 6 6 6 6 5 5 4 3 3 2 1 1 1 2 3 3 3 4 7 8 8 9 9 9 9 8 7 6 6 7 8 8 7 7 8 9 9 10 11 11 11 11 12 12 11
6 6 7 7 7 7 6 5 5 5 5 4 4 4 3 3 3 2 2 3 3 4 4 5 5 5 5 4 4 4 4 4 3 2 1 1 1 2 3 3 3 5 7 8 8 8 9 9 9 9 7 6 6 7 7 8 8 8 9 10 10 10 11 11 11 11 11 11 11
6 6 7 7 7 6 6 5 5 5 5 5 4 3 3 3 2 2 2 3 4 4 4 4 4 4 4 4 4 4 4 4 3 2 2 1 1 2 3 3 4 5 6 7 8 8 8 9 10 9 8 6 6 6 7 7 7 8 9 10 10 10 11 10 10 10 10 10 10
6 6 6 7 6 6 5 5 5 5 5 5 4 4 3 3 2 2 2 3 4 4 5 5 5 5 5 6 5 4 4 4 3 3 2 1 1 2 3 3 4 4 6 7 7 8 8 9 10 10 9 6 7 7 7 6 6 7 8 9 10 10 10 9 9 9 9 10 11
6 6 6 6 6 5 5 5 5 6 6 5 4 4 3 3 2 2 2 3 3 4 5 5 6 6 6 6 6 5 4 3 3 3 2 2 1 1 2 3 3 4 5 6 7 8 8 9 10 10 9 7 7 7 7 6 7 7 8 8 9 9 9 8 8 8 8 10 11
6 6 6 6 6 5 5 5 6 6 6 5 4 4 3 3 2 2 3 3 3 4 5 5 6 7 7 7 6 5 5 4 3 3 2 2 1 1 1 2 3 3 4 6 7 8 8 9 10 10 9 7 7 6 6 6 7 7 8 8 8 9 9 8 7 7 7 9 11
6 5 6 6 6 6 5 6 6 6 5 5 5 4 4 3 2 3 3 3 3 3 4 5 6 7 7 7 6 6 5 4 4 3 2 2 1 0 0 1 2 3 4 5 7 7 8 8 9 10 9 7 6 6 5 6 7 7 8 8 8 8 8 8 7 7 7 8 9
6 5 6 6 6 6 6 6 5 5 5 5 5 4 3 2 2 3 3 3 3 3 3 4 6 7 8 7 6 6 6 5 4 3 2 2 1 1 1 1 2 3 3 5 6 7 8 8 9 9 9 7 6 5 5 6 6 8 9 9 8 8 8 8 7 7 7 8 8
Wind_Direction
76 77 77 77 80 82 82 81 77 76 76 77 76 75 74 72 70 66 62 57 57 57 58 56 54 54 54 52 53 54 54 54 54 53 52 49 47 43 39 37 34 32 30 29 29 29 30 29 31 32 32 25 19 19 17 11 2 1 2 360 357 352 349 348 350 350 348 346 344
81 82 84 85 87 89 90 90 87 84 83 81 80 77 75 73 72 69 65 60 59 61 64 65 61 59 58 57 57 57 57 58 57 57 56 53 49 44 41 39 35 32 29 27 26 26 26 24 25 26 25 19 11 10 11 7 356 352 351 353 350 345 341 341 343 342 339 340 340
86 88 89 91 93 95 95 95 94 92 91 87 84 80 77 74 73 72 70 67 65 65 65 66 65 64 62 61 61 61 60 58 57 57 56 54 48 43 38 35 33 31 28 24 22 19 16 12 15 15 12 5 358 357 357 357 346 341 339 342 339 335 332 333 334 332 330 331 331
89 89 90 90 93 95 98 101 101 99 97 94 90 84 80 77 77 78 79 78 72 67 64 66 70 69 67 66 66 64 62 58 55 55 54 51 45 39 34 29 27 26 25 21 16 11 5 356 358 356 351 345 341 341 341 337 331 327 324 326 324 322 322 321 322 320 320 320 320
91 91 92 95 96 98 101 103 105 104 101 98 95 91 88 85 86 87 86 81 74 71 70 71 74 74 74 71 70 68 64 59 52 48 47 45 40 34 27 22 19 17 15 14 7 360 351 338 336 335 334 330 325 324 323 320 317 313 311 309 311 313 314 314 313 313 312 311 311
99 98 100 102 103 103 103 104 105 104 103 102 101 98 96 94 94 91 89 87 85 83 82 79 80 80 79 74 70 67 61 55 47 40 36 34 30 24 19 15 9 3 359 358 351 343 334 325 322 321 320 317 312 311 311 311 310 309 307 304 306 308 311 313 313 312 310 311 311
108 108 108 109 109 110 110 110 110 110 109 107 104 103 103 104 103 100 98 99 98 95 91 88 85 82 79 74 68 62 55 48 42 33 26 22 17 12 7 2 356 350 345 340 332 327 323 318 314 312 311 307 305 306 308 309 308 307 306 306 307 311 315 318 318 316 314 315 316
110 111 113 114 114 115 116 118 120 119 117 114 112 112 113 113 112 111 110 107 103 100 98 95 89 83 77 70 64 56 48 39 32 25 18 10 3 359 355 350 346 341 338 332 327 324 322 315 312 311 309 305 301 303 305 307 307 306 306 306 307 312 316 319 317 315 316 318 320
115 115 117 118 118 119 121 123 124 123 122 121 121 122 122 122 122 120 116 110 107 108 107 104 98 91 80 66 55 43 32 22 15 9 5 359 354 350 347 343 341 339 336 334 330 326 323 317 316 315 315 311 308 306 306 307 305 305 305 304 306 309 310 309 309 310 313 317 318
124 125 124 123 123 125 127 129 129 128 126 126 128 129 130 131 130 125 119 115 120 121 116 106 101 91 74 58 40 26 14 3 357 353 351 350 349 346 344 341 340 339 337 339 336 332 328 322 322 321 320 316 313 310 307 305 302 302 301 300 302 303 302 300 301 303 305 307 310
131 133 133 131 133 135 137 137 137 136 135 133 136 138 139 139 136 131 129 134 137 130 116 97 78 59 48 43 25 11 359 352 347 343 343 347 348 346 344 342 342 341 341 343 342 338 333 330 327 327 325 323 318 315 312 309 304 301 299 297 297 296 296 295 296 295 294 293 296
138 140 141 141 144 146 148 147 145 144 143 142 144 145 146 143 141 144 150 159 146 129 111 86 57 37 31 30 13 1 353 350 343 340 342 348 350 349 348 349 348 348 348 349 348 343 337 335 333 331 330 327 324 321 319 316 310 305 302 298 297 296 295 296 297 297 295 294 292
147 149 151 152 155 157 158 156 153 152 152 152 153 154 152 148 151 160 171 168 144 119 101 87 65 45 32 23 8 359 355 355 349 348 349 355 356 357 357 360 359 357 355 355 353 349 344 341 339 336 333 330 327 325 324 322 317 313 309 305 303 302 301 302 304 304 304 304 300
157 159 161 162 165 167 167 163 161 161 163 163 164 163 160 158 159 173 189 170 122 99 93 97 91 74 54 32 16 6 2 360 360 2 5 8 7 6 6 7 6 4 1 359 356 353 350 347 344 340 335 331 329 328 328 327 324 320 316 312 310 309 308 308 311 312 313 312 310
166 169 170 171 174 175 174 172 170 171 172 172 171 173 174 167 155 163 206 185 112 102 104 110 104 95 84 66 42 22 13 16 21 23 23 23 18 15 12 11 10 8 5 0 357 356 353 350 345 341 337 334 332 332 332 332 329 325 320 316 314 312 312 315 318 320 321 320 317
174 176 178 181 182 183 182 180 179 179 179 178 177 181 187 170 139 145 215 234 155 133 121 112 110 109 110 111 101 87 66 57 46 39 35 30 24 20 17 14 13 10 6 1 357 355 353 350 346 342 339 336 335 335 336 335 330 325 321 317 315 315 316 319 322 323 323 321 317
182 184 186 189 190 190 190 188 187 188 188 185 186 190 192 144 126 151 206 239 191 137 119 109 111 112 112 112 110 101 82 71 58 49 42 35 27 23 20 17 14 9 5 360 356 353 350 348 345 342 340 338 338 337 336 334 330 326 322 318 317 316 316 317 318 318 317 315 311
190 190 192 195 197 197 196 194 193 194 196 197 199 201 206 358 283 222 203 215 226 163 120 114 112 109 105 101 98 89 76 69 63 57 49 41 33 28 23 18 13 8 2 358 354 351 348 346 344 341 340 339 338 337 336 334 331 328 324 320 317 315 314 314 314 312 310 308 305
195 195 196 199 202 202 202 200 200 199 201 206 213 221 244 260 260 243 220 199 210 201 161 129 121 112 102 95 93 86 77 71 68 63 57 48 40 32 25 17 10 4 359 356 352 349 346 344 342 340 339 338 338 338 338 338 336 333 329 323 320 318 317 317 317 315 313 310 306
200 200 201 203 205 206 207 206 206 207 210 218 229 238 243 239 240 238 226 197 198 203 193 151 124 112 103 98 95 89 84 77 73 68 62 52 43 34 24 13 5 360 357 354 351 348 345 343 341 341 340 341 340 341 342 343 341 337 332 325 323 322 323 324 326 325 323 320 318
206 206 206 207 209 212 212 212 215 223 230 239 244 248 248 239 236 234 229 206 202 206 197 139 105 98 97 97 96 94 90 84 77 72 65 56 45 35 22 9 2 358 356 354 351 348 345 343 343 344 345 345 346 348 348 347 344 339 334 329 328 328 330 334 335 334 333 332 330
211 210 211 213 216 219 222 226 233 241 247 251 253 254 252 246 240 235 229 224 210 194 137 91 83 84 88 93 96 98 97 94 87 78 69 58 48 35 22 8 2 359 356 354 351 349 346 344 346 349 352 352 354 355 354 351 345 339 335 334 333 333 335 340 340 338 337 336 334
215 213 214 219 223 227 232 238 244 249 253 256 259 259 256 250 243 230 209 193 157 105 84 84 81 82 85 92 99 104 106 104 96 87 74 61 47 34 22 12 6 2 359 355 353 350 347 345 348 354 359 358 358 357 356 352 345 341 338 336 334 334 334 337 337 335 333 333 330
222 219 219 223 228 233 238 241 244 248 251 258 263 264 260 252 239 213 178 142 102 84 81 88 92 95 98 104 107 107 106 102 95 85 73 60 46 34 23 16 10 4 359 354 352 351 350 349 351 356 360 359 357 355 352 349 345 342 339 336 333 331 330 330 331 330 329 329 326
233 230 229 232 234 237 239 241 243 245 249 257 265 263 259 253 241 204 151 116 95 87 89 98 107 114 118 119 115 110 102 95 88 78 66 54 42 32 24 17 11 3 354 350 351 352 355 1 1 360 358 356 354 351 348 345 344 341 338 334 331 329 328 327 327 328 328 327 326
241 238 236 236 238 241 242 241 241 243 247 256 258 257 256 260 254 208 136 113 102 101 106 116 123 128 130 130 124 117 107 97 85 71 58 47 38 31 24 17 11 1 351 350 350 353 358 9 12 10 2 355 352 349 346 344 343 340 337 334 332 331 330 329 329 329 329 328 327
245 241 240 240 242 244 245 245 244 244 243 246 251 254 257 266 263 227 151 123 119 121 127 131 135 138 139 136 128 121 114 104 89 71 56 45 37 29 22 14 9 358 349 349 350 353 358 5 10 11 9 1 355 350 346 343 342 339 337 335 335 335 334 332 331 331 330 329 329
247 244 243 245 247 248 249 249 246 242 239 240 250 258 262 260 253 235 181 141 138 140 143 145 147 148 147 140 131 123 115 103 91 74 59 47 39 31 23 11 5 356 351 350 352 354 357 359 3 10 14 10 358 349 345 342 341 339 338 337 338 337 336 334 333 332 331 330 330
249 248 248 249 250 252 251 247 241 238 237 239 250 256 256 247 237 221 195 166 156 155 154 154 156 156 152 145 137 129 119 102 84 70 58 48 40 32 22 10 1 355 352 351 354 356 357 356 1 13 22 18 2 350 345 343 341 339 338 338 339 338 337 335 333 332 331 331 331
254 253 252 253 256 257 254 247 239 233 232 234 242 245 244 237 226 213 196 179 168 162 158 158 159 157 153 145 141 137 127 108 87 69 55 47 38 30 20 11 1 356 354 354 355 357 358 356 3 18 28 22 5 353 346 343 340 338 337 338 338 337 336 333 332 331 331 331 330
270 268 266 265 265 263 258 249 236 226 222 224 230 234 235 232 226 217 202 185 170 161 159 162 160 156 150 144 144 139 131 115 99 79 61 47 36 25 15 8 1 357 356 356 357 359 359 357 5 19 28 19 4 354 346 343 340 338 337 338 338 337 336 334 333 332 332 332 331
289 285 280 275 270 266 260 248 234 223 218 219 224 228 231 232 229 221 204 185 170 167 168 171 166 160 154 153 151 147 139 129 112 87 64 46 31 19 11 7 4 1 358 357 358 360 1 359 6 16 22 13 360 351 345 341 338 337 337 338 338 339 338 337 335 334 333 333 333
293 286 279 274 271 267 260 249 235 226 221 220 223 227 231 234 228 213 194 183 176 177 178 179 174 169 166 165 161 156 149 138 122 100 75 48 26 15 11 10 11 2 357 355 358 1 3 1 4 11 15 7 354 346 343 341 338 337 338 339 340 341 341 340 337 336 336 335 333
294 286 279 274 271 269 263 252 242 234 230 229 229 231 234 239 232 214 193 178 177 181 184 184 178 174 169 165 160 156 150 140 130 117 97 59 30 21 19 19 17 2 354 352 359 3 4 1 360 3 5 358 347 342 341 340 338 338 339 339 341 343 343 342 340 339 337 336 335
296 288 281 276 274 271 266 257 249 244 241 241 240 239 239 242 239 222 193 168 170 177 182 182 175 167 160 153 152 151 148 144 139 129 114 73 36 31 29 26 17 359 351 350 359 4 4 359 355 356 356 350 343 341 340 339 338 339 340 340 342 343 344 342 341 340 339 338 337
295 286 279 275 273 269 265 258 252 249 247 248 248 249 247 246 238 214 182 163 167 174 177 174 167 161 157 156 156 156 154 152 149 144 135 107 48 37 34 28 17 360 351 349 359 4 3 357 352 351 351 347 343 342 341 339 338 339 340 341 343 344 344 343 341 341 340 339 340
292 281 273 269 268 264 260 253 249 247 247 249 252 254 256 255 233 199 176 171 173 176 175 170 168 169 171 169 164 161 159 159 159 157 150 137 74 43 34 27 16 1 350 349 357 1 1 355 350 350 350 347 346 344 343 340 339 339 340 342 343 345 345 343 341 340 341 342 341
287 274 263 258 257 254 249 242 239 240 243 247 250 251 251 251 225 194 183 187 185 180 177 173 176 178 177 170 163 159 160 167 171 169 162 150 108 53 32 23 13 360 350 348 354 358 358 353 349 350 352 350 348 346 344 341 340 341 341 343 343 345 345 344 342 341 341 342 341
283 267 253 247 245 241 237 233 234 236 239 243 245 243 238 228 206 189 186 197 195 187 182 181 182 179 172 163 159 158 161 170 176 178 174 164 144 84 34 14 4 354 348 345 350 354 355 352 349 351 353 352 351 348 344 340 341 342 343 344 343 343 344 344 341 340 339 340 338
275 259 245 238 235 231 229 229 232 235 237 240 240 237 231 212 192 181 182 194 194 190 186 189 182 173 164 159 159 160 163 170 174 179 183 181 182 167 11 345 339 339 340 341 346 350 352 350 349 352 354 355 353 349 344 341 341 343 345 347 345 343 342 342 340 339 338 337 336
265 249 237 232 229 226 225 227 232 234 235 236 236 235 228 200 187 183 185 191 189 187 186 187 175 166 161 159 160 163 166 170 173 176 182 194 213 236 272 288 307 318 327 334 341 345 347 347 348 352 356 358 354 350 345 343 343 346 348 348 345 342 340 338 339 338 338 336 336